SALSAT

Last updated on Mon Sep 21 2026 00:03:14 GMT+0000 (Coordinated Universal Time)

1 46495U 20068K 26263.27889389 .00005107 00000+0 17335-3 0 9991 2 46495 97.8892 272.2406 0008561 338.9521 21.1366 15.30980168329900
UTC large
Height (km)
Speed (km/s)
/
Latitude / Longitude
Inclination (degrees)
Orbital Period (minutes)
Azimuth
Elevation
Range (km)
Doppler Factor

Next 0 passes for location: London (51.5072 / 0.1276)

No passes found over London.
SALSAT